Location: Nasgenstadt
(48.2786°N, 9.7553°E)
Time: 17:03:19
(UTC+01:00)

ISS - Pass Details

Date: 22 March 2017
Orbit: 399 x 409 km, 51.6° (Epoch: 25 March)

Event Time Altitude Azimuth Distance (km) Brightness Sun altitude
Exits shadow 03:47:02 17° 114° (ESE) 1,104 -1.3 -24.9°
Drops below altitude 10° 03:47:57 10° 114° (ESE) 1,471 -0.6 -24.8°
Sets 03:50:02 0° 114° (ESE) 2,331 0.5 -24.5°
